Regional Weather Roundup
Issued by NWS Midland/Odessa, TX

Skip options and go directly to product.
Home | Oldest Version | Previous Version | Current Version | All | Graphics & Text | Save Text | Print | Product List | Glossary On

Skip product version selection by date and time.   
826
ASUS44 KMAF 181010
RWRMAF
MIDLAND AREA WEATHER ROUNDUP
NATIONAL WEATHER SERVICE MIDLAND TX
500 AM CDT FRI APR 18 2014

...IN SOUTHWEST TEXAS AND SOUTHEAST NEW MEXICO...

CITY           SKY/WX    TMP DP  RH WIND       PRES   REMARKS
ALPINE         PTCLDY    54  47  79 E5        30.22F
ANDREWS        CLOUDY    49  46  87 E9        30.21S
ARTESIA        CLOUDY    50  41  71 SE9       30.20S
BIG SPRING     CLOUDY    54  49  86 NE7       30.22F
CARLSBAD       CLOUDY    53  42  66 E7        30.19R
DRYDEN           N/A     62  58  86 E10       30.13S
FORT STOCKTON  CLOUDY    57  51  80 E7        30.16S
GUAD PASS      CLOUDY    47  43  86 NE38      30.16F WCI  37
HOBBS          CLOUDY    45  43  93 E9        30.21F FOG     WCI  40
MARFA          MOCLDY    45  36  70 NE7       30.19S
MIDLAND AIRPK  CLOUDY    52  47  83 E6        30.21S
MIDLAND INTL   CLOUDY    52  48  86 E12       30.20S
ODESSA         CLOUDY    52  48  86 E12       30.20F
PECOS          CLOUDY    53  47  78 NE9       30.17S
PRESIDIO       FAIR      64  48  56 NE12G18   30.08S
SEMINOLE       CLOUDY    47  45  90 E7        30.22F
SNYDER         CLOUDY    49  47  93 CALM      30.22F
WINK           CLOUDY    54  49  83 E12       30.17F
$$
...OTHER STATIONS IN TEXAS...

CITY           SKY/WX    TMP DP  RH WIND       PRES   REMARKS
ABILENE        CLOUDY    51  49  92 NW6       30.21F FOG
AMARILLO       CLOUDY    40  34  79 S9        30.23F WCI  34
AUSTIN         CLOUDY    60  59  96 CALM      30.15F FOG
BROWNSVILLE    CLOUDY    69  67  93 N5        30.05S
CORPUS CHRISTI CLOUDY    66  62  87 N8        30.10S
DALLAS FTW     CLOUDY    56  53  90 N6        30.18S FOG
DEL RIO        CLOUDY    65  60  84 SE10      30.12F
EL PASO        FAIR      59  35  40 CALM      30.09S
HOUSTON INT    CLOUDY    60  54  80 N5        30.14R
LUBBOCK        CLOUDY    45  41  86 SE7       30.22F
SAN ANGELO     CLOUDY    56  52  86 NE7       30.17F
SAN ANTONIO    CLOUDY    62  60  93 CALM      30.15F FOG
WACO           CLOUDY    58  56  93 N6        30.17S FOG
WICHITA FALLS  NOT AVBL
$$
...OTHER LOCATIONS IN NEW MEXICO...

CITY           SKY/WX    TMP DP  RH WIND       PRES   REMARKS
ALAMAGORDO     PTCLDY    48  25  40 NE6       30.11R
ALBUQUERQUE    PTCLDY    49  26  41 N9        30.14F
CANNON AFB     CLEAR     35  34  94 SE6       30.22S WCI  30
CLOVIS         CLEAR     34  28  80 S5        30.24F WCI  30
HOLLOMAN AFB   MOCLDY    50  26  38 SW5       30.10R
ROSWELL        MOCLDY    49  40  71 S10       30.20S
RUIDOSO        CLEAR     37  25  60 S6        30.24F WCI  33
SANTA FE       CLEAR     44  26  49 SE10      30.19F WCI  39
TRUTH OR CONSE FAIR      50  18  28 W3        30.10S
TUCUMCARI      CLEAR     40  33  76 W8        30.20S WCI  34
$$

USA.gov is the U.S. government's official web portal to all federal, state and local government web resources and services.